This is the latest recevied weather packets stored in our database for station/object AE5EW. If no packets are shown the sender has not sent any weather packets the latest 10 day(s).
| Time | Temp. | Humidity | Pressure | Rain* | Wind** | Luminosity | Snow |
|---|---|---|---|---|---|---|---|
| 1787939267 | 23.89° C | 91% | 1019.1 hPa | 3.05 mm | - | - | - |
| 1787938962 | 24.44° C | 91% | 1019.1 hPa | 0 mm | - | - | - |
| 1787938661 | 25.56° C | 89% | 1019.2 hPa | 0 mm | - | - | - |
| 1787938357 | 25.56° C | 88% | 1019.2 hPa | 0 mm | - | - | - |
| 1787938052 | 26.11° C | 91% | 1019.1 hPa | 0 mm | - | - | - |
| 1787937747 | 26.67° C | 91% | 1019.1 hPa | 0 mm | - | - | - |
| 1787937443 | 26.67° C | 91% | 1019.2 hPa | 0 mm | - | - | - |
| 1787937140 | 27.22° C | 89% | 1019.1 hPa | 0 mm | - | - | - |
| 1787936839 | 27.78° C | 87% | 1019.4 hPa | 0 mm | - | - | - |
| 1787936534 | 27.78° C | 86% | 1019.3 hPa | 0 mm | - | - | - |
| 1787936233 | 27.78° C | 86% | 1019 hPa | 0 mm | - | - | - |
| 1787935930 | 27.78° C | 86% | 1019.2 hPa | 0 mm | - | - | - |
| 1787935630 | 28.33° C | 85% | 1019.3 hPa | 0 mm | - | - | - |
| 1787935327 | 28.33° C | 85% | 1019.4 hPa | 0 mm | - | - | - |
| 1787935026 | 28.33° C | 85% | 1019.3 hPa | 0 mm | - | - | - |
| 1787934721 | 27.78° C | 86% | 1019.3 hPa | 0 mm | - | - | - |
| 1787934420 | 27.78° C | 85% | 1019.3 hPa | 0 mm | - | - | - |
| 1787934115 | 27.78° C | 86% | 1019.4 hPa | 0 mm | - | - | - |
| 1787933814 | 27.78° C | 86% | 1019.4 hPa | 0 mm | - | - | - |
| 1787933509 | 28.33° C | 84% | 1019.2 hPa | 0 mm | - | - | - |
| 1787933204 | 27.78° C | 86% | 1019.3 hPa | 0 mm | - | - | - |
| 1787932899 | 27.78° C | 87% | 1019.1 hPa | 0 mm | - | - | - |
| 1787932597 | 27.78° C | 87% | 1019 hPa | 0 mm | - | - | - |
| 1787932297 | 27.78° C | 87% | 1019.1 hPa | 0 mm | - | - | - |
| 1787931991 | 27.22° C | 87% | 1019 hPa | 0 mm | - | - | - |
* Rain latest hour (hover to see other rain measurements)
** Current wind speed in m/s (hover to see current wind gust speed)